Weather History for KSTJ - August, 2014

Change the Weather History Date:

Thursday, August 14, 2014

  Actual Average Record
Temperature  
Mean Temperature 70 °F 76 °F  
Max Temperature 84 °F 87 °F 108 °F (1936)
Min Temperature 55 °F 65 °F 51 °F (1994)
Degree Days  
Heating Degree Days 0 0  
Month to date heating degree days 0 0  
Since 1 June heating degree days 7 9  
Since 1 July heating degree days 6 1  
Cooling Degree Days 5 11  
Month to date cooling degree days 120 164  
Year to date cooling degree days 819 918  
Since 1 June cooling degree days 658 805  
Growing Degree Days 18 (Base 50)    
Moisture  
Dew Point 59 °F    
Average Humidity 73    
Maximum Humidity 100    
Minimum Humidity 46    
Precipitation  
Precipitation 0.00 in 0.13 in 2.08 in (1985)
Month to date precipitation 0.68 1.63  
Year to date precipitation 20.77 23.95  
Sea Level Pressure  
Sea Level Pressure 30.07 in    
Wind  
Wind Speed 5 mph (ESE)    
Max Wind Speed 14 mph    
Max Gust Speed 16 mph    
Visibility 5 miles    
Events Fog    
T = Trace of Precipitation, MM = Missing Value Source: NWS Daily Summary

Daily Weather History Graph

Daily Weather History Graph

Search for Another Location

Airport or City:

Trip Planner

Search our weather history database for the weather conditions in past years. The results will help you decide how hot, cold, wet, or windy it might be!

Date:

Astronomy

Aug. 14, 2014 Rise Set
Actual Time 6:30 AM CDT 8:17 PM CDT
Civil Twilight 6:01 AM CDT 8:46 PM CDT
Nautical Twilight 5:26 AM CDT 9:21 PM CDT
Astronomical Twilight 4:48 AM CDT 9:58 PM CDT
Moon 10:41 PM CDT (8/14) 11:07 AM CDT (8/14)
Length of Visible Light 14h 44m
Length of Day
13h 46m
Waning Gibbous, 79% of the Moon is Illuminated
Aug 14
Waning Gibbous
Aug 17
Last Quarter
Aug 25
New
Sep 2
First Quarter
Sep 8
Full

Hourly Weather History & Observations

Time (CDT) Temp. Heat Index Dew Point Humidity Pressure Visibility Wind Dir Wind Speed Gust Speed Precip Events Conditions
12:53 AM 60.1 °F - 59.0 °F 96% 30.09 in 10.0 mi North 3.5 mph - N/A   Clear
1:53 AM 59.0 °F - 57.0 °F 93% 30.08 in 10.0 mi Calm Calm - N/A   Clear
2:35 AM 59.0 °F - 57.0 °F 93% 30.09 in 10.0 mi Calm Calm - N/A   Scattered Clouds
2:53 AM 57.9 °F - 57.0 °F 97% 30.07 in 10.0 mi North 3.5 mph - N/A   Scattered Clouds
3:31 AM 57.9 °F - 57.0 °F 97% 30.08 in 1.8 mi North 3.5 mph - N/A   Scattered Clouds
3:40 AM 57.0 °F - 55.9 °F 96% 30.08 in 4.0 mi Calm Calm - N/A   Scattered Clouds
3:53 AM 57.0 °F - 55.9 °F 96% 30.07 in 10.0 mi Calm Calm - N/A   Scattered Clouds
4:03 AM 57.0 °F - 55.9 °F 96% 30.08 in 2.0 mi Calm Calm - N/A   Mostly Cloudy
4:10 AM 55.9 °F - 55.0 °F 97% 30.08 in 0.8 mi Calm Calm - N/A   Mist
4:17 AM 55.9 °F - 55.9 °F 100% 30.08 in 2.5 mi Calm Calm - N/A   Mostly Cloudy
4:24 AM 57.0 °F - 55.9 °F 96% 30.09 in 1.5 mi Calm Calm - N/A   Mostly Cloudy
4:29 AM 55.9 °F - 55.9 °F 100% 30.09 in 0.5 mi Calm Calm - N/A Fog Fog
4:53 AM 57.0 °F - 57.0 °F 100% 30.08 in 1.0 mi Calm Calm - N/A   Mist
5:03 AM 57.9 °F - 57.9 °F 100% 30.09 in 1.0 mi Calm Calm - N/A   Mist
5:07 AM 57.0 °F - 57.0 °F 100% 30.09 in 2.0 mi Calm Calm - N/A   Clear
5:12 AM 55.9 °F - 55.9 °F 100% 30.09 in 1.8 mi NNE 3.5 mph - N/A   Partly Cloudy
5:17 AM 57.0 °F - 55.9 °F 96% 30.08 in 0.8 mi NE 3.5 mph - N/A   Mist
5:24 AM 57.0 °F - 57.0 °F 100% 30.08 in 0.2 mi Calm Calm - N/A Fog Fog
5:33 AM 57.0 °F - 57.0 °F 100% 30.08 in 1.0 mi Calm Calm - N/A   Mist
5:53 AM 55.9 °F - 55.9 °F 100% 30.08 in 0.5 mi Calm Calm - N/A Fog Fog
6:10 AM 55.0 °F - 55.0 °F 100% 30.09 in 1.0 mi Calm Calm - N/A   Mist
6:17 AM 55.9 °F - 55.0 °F 97% 30.09 in 0.5 mi Calm Calm - N/A Fog Fog
6:25 AM 55.0 °F - 55.0 °F 100% 30.10 in 0.2 mi Calm Calm - N/A Fog Fog
6:53 AM 55.0 °F - 55.0 °F 100% 30.09 in 0.5 mi Calm Calm - N/A Fog Fog
7:04 AM 55.9 °F - 55.9 °F 100% 30.10 in 0.2 mi Calm Calm - N/A Fog Fog
7:51 AM 59.0 °F - 59.0 °F 100% 30.12 in 0.2 mi Calm Calm - N/A Fog Fog
7:53 AM 59.0 °F - 59.0 °F 100% 30.11 in 0.2 mi Calm Calm - N/A Fog Fog
8:08 AM 60.1 °F - 60.1 °F 100% 30.11 in 1.2 mi Calm Calm - N/A   Mostly Cloudy
8:11 AM 61.0 °F - 61.0 °F 100% 30.11 in 4.0 mi Calm Calm - N/A   Mostly Cloudy
8:21 AM 62.1 °F - 61.0 °F 96% 30.11 in 10.0 mi Calm Calm - N/A   Scattered Clouds
8:53 AM 63.0 °F - 63.0 °F 100% 30.11 in 10.0 mi Calm Calm - N/A   Clear
9:53 AM 71.1 °F - 64.0 °F 78% 30.09 in 10.0 mi Calm Calm - N/A   Clear
10:53 AM 75.9 °F - 62.1 °F 62% 30.09 in 10.0 mi SE 4.6 mph - N/A   Clear
11:53 AM 78.1 °F - 61.0 °F 56% 30.08 in 10.0 mi SSE 8.1 mph - N/A   Clear
12:53 PM 79.0 °F - 62.1 °F 56% 30.06 in 10.0 mi South 9.2 mph - N/A   Clear
1:53 PM 82.0 °F 82.4 °F 60.1 °F 47% 30.04 in 10.0 mi SE 8.1 mph - N/A   Clear
2:53 PM 82.9 °F 82.8 °F 59.0 °F 44% 30.03 in 10.0 mi SE 8.1 mph - N/A   Clear
3:53 PM 82.9 °F 83.3 °F 61.0 °F 47% 30.02 in 10.0 mi ESE 8.1 mph - N/A   Clear
4:53 PM 82.9 °F 83.3 °F 61.0 °F 47% 30.01 in 10.0 mi Variable 6.9 mph - N/A   Clear
5:53 PM 82.0 °F 83.0 °F 62.1 °F 51% 29.99 in 10.0 mi SE 8.1 mph - N/A   Clear
6:53 PM 81.0 °F 81.9 °F 62.1 °F 52% 29.99 in 10.0 mi SE 8.1 mph - N/A   Clear
7:53 PM 77.0 °F - 64.0 °F 64% 29.98 in 10.0 mi SE 6.9 mph - N/A   Clear
8:53 PM 73.0 °F - 64.0 °F 73% 29.98 in 10.0 mi SE 8.1 mph - N/A   Clear
9:53 PM 72.0 °F - 63.0 °F 73% 29.99 in 10.0 mi SE 6.9 mph - N/A   Clear
10:53 PM 72.0 °F - 62.1 °F 71% 29.98 in 10.0 mi SE 6.9 mph - N/A   Clear
11:53 PM 70.0 °F - 62.1 °F 76% 29.97 in 10.0 mi SE 5.8 mph - N/A   Clear